Tracking 28348 objects as of 8-Dec-2023
HD Live streaming from Space Station
objects crossing your sky now

STARLINK-30443

Track STARLINK-30443 now!
10-day predictions
STARLINK-30443 is classified as:


NORAD ID: 57894
Int'l Code: 2023-146D
Perigee: 565.3 km
Apogee: 567.1 km
Inclination: 43.0 °
Period: 95.8 minutes
Semi major axis: 6937 km
RCS: Unknown
Launch date: September 20, 2023
Source: United States (US)
Launch site: AIR FORCE EASTERN TEST RANGE (AFETR)
Your satellite tracking list
Your tracking list is empty




NASA's NSSDC Master Catalog

Two Line Element Set (TLE):
1 57894U 23146D   23341.35421396 -.00000373  00000-0 -12504-4 0  9996
2 57894  43.0004 107.2535 0001304 262.0142  98.0553 15.02540260 13216
Source of the keplerian elements: AFSPC